Flag for Curaçao

Past Weather in Willemstad, Curaçao — Yesterday and Last 2 Weeks

Now
82 °F

Passing clouds.


Feels Like: 91 °F
Forecast: 91 / 83 °F
Wind: 10 mph from Southeast

Location: Hato Airport - Curacao
Current Time: Oct 22, 2020 at 3:17:10 am
Latest Report: Oct 22, 2020 at 2:00 am
Visibility: N/A
Pressure29.83 "Hg
Humidity: 84%
Dew Point: 77 °F
Location of WillemstadLocation

Past Weather in Willemstad — Graph

°F

Willemstad Temperature Yesterday

Maximum temperature yesterday: 88 °F (at 12:00 pm)
Minimum temperature yesterday: 77 °F (at 12:00 am)
Average temperature yesterday: 83 °F

High & Low Weather Summary for the Past Weeks

 TemperatureHumidityPressure
High95 °F (Oct 13, 12:00 pm)89% (Oct 7, 2:00 am)29.98 "Hg (Oct 7, 2:00 am)
Low75 °F (Oct 7, 2:00 am)34% (Oct 13, 12:00 pm)29.68 "Hg (Oct 19, 5:00 pm)
Average85 °F72%29.84 "Hg
* Reported Oct 7 2:00 am — Oct 22 2:00 am, Willemstad. Weather by CustomWeather, © 2020

Note: Actual official high and low records may vary slightly from our data, if they occured in-between our weather recording intervals... More about our weather records

Willemstad Weather History for the Previous 24 Hours

Scroll right to see more
 ConditionsComfort  
Time TempWeatherWind HumidityBarometerVisibility
2:00 am
Thu, Oct 22
82 °FPassing clouds.10 mph84%29.83 "HgN/A
1:00 am82 °FPassing clouds.12 mph84%29.86 "HgN/A
12:00 am84 °FPassing clouds.13 mph79%29.86 "HgN/A
11:00 pm
Wed, Oct 21
84 °FPassing clouds.13 mph79%29.89 "HgN/A
10:00 pm84 °FPassing clouds.15 mph79%29.86 "HgN/A
9:00 pm84 °FPassing clouds.14 mph79%29.86 "HgN/A
8:00 pm84 °FClear.14 mph79%29.83 "Hg10 mi
7:00 pm84 °FClear.15 mph79%29.80 "Hg10 mi
6:00 pm86 °FPassing clouds.16 mph75%29.80 "HgN/A
5:00 pm86 °FPassing clouds.15 mph75%29.80 "HgN/A
4:00 pm88 °FPassing clouds.15 mph70%29.80 "HgN/A
3:00 pm88 °FPassing clouds.15 mph70%29.80 "HgN/A
2:00 pm88 °FScattered clouds.14 mph75%29.83 "HgN/A
1:00 pm88 °FScattered clouds.14 mph75%29.83 "HgN/A
12:00 pm88 °FPartly sunny.15 mph75%29.86 "HgN/A
11:00 am86 °FPartly sunny.10 mph79%29.89 "HgN/A
10:00 am86 °FScattered clouds.9 mph79%29.89 "HgN/A
9:00 am84 °FScattered clouds.9 mph79%29.89 "HgN/A
8:00 am82 °FPassing clouds.3 mph84%29.86 "HgN/A
7:00 am79 °FPassing clouds.5 mph89%29.86 "HgN/A
6:00 am79 °FPassing clouds.6 mph84%29.83 "HgN/A
5:00 am79 °FPassing clouds.3 mph84%29.83 "HgN/A
4:00 am79 °FPassing clouds.5 mph84%29.80 "HgN/A
3:00 am79 °FPassing clouds.3 mph84%29.80 "HgN/A
Weather by CustomWeather, © 2020

See weather overview